Hannover, Germany

12:46 PM CET on February 25, 2018 (GMT +0100)
Hannover

Weather History for EDDV - February, 2018

Change the Weather History Date:

Tuesday, February 13, 2018

  Actual Average Record
Temperature  
Mean Temperature 34 °F -  
Max Temperature 41 °F 42 °F 53 °F (1998)
Min Temperature 28 °F 30 °F 15 °F (1999)
Degree Days  
Heating Degree Days 30    
Moisture  
Dew Point 25 °F    
Average Humidity 73    
Maximum Humidity 86    
Minimum Humidity 52    
Precipitation  
Precipitation 0.00 in 0.05 in - ()
Sea Level Pressure  
Sea Level Pressure 29.95 in    
Wind  
Wind Speed 7 mph ()    
Max Wind Speed 15 mph    
Max Gust Speed -    
Visibility 6.2 miles    
Events      
Averages and records for this station are not official NWS values.
T = Trace of Precipitation, MM = Missing Value Source: Averaged Metar Reports

Daily Weather History Graph

Daily Weather History Graph

Search for Another Location

Airport or City:

Trip Planner

Search our weather history database for the weather conditions in past years. The results will help you decide how hot, cold, wet, or windy it might be!

Date:

Astronomy

Feb. 13, 2018 Rise Set
Actual Time 7:41 AM CET 5:30 PM CET
Civil Twilight 7:05 AM CET 6:05 PM CET
Nautical Twilight 6:25 AM CET 6:45 PM CET
Astronomical Twilight 5:46 AM CET 7:25 PM CET
Moon 6:24 AM CET (2/13) 3:05 PM CET (2/13)
Length of Visible Light 10h 59m
Length of Day
9h 48m
Waning Crescent, 5% of the Moon is Illuminated
Feb 13
Waning Crescent
Feb 15
New
Feb 23
First Quarter
Mar 2
Full
Mar 9
Last Quarter

Hourly Weather History & Observations

Time (CET) Temp. Windchill Dew Point Humidity Pressure Visibility Wind Dir Wind Speed Gust Speed Precip Events Conditions
12:20 AM 30.2 °F 25.4 °F 26.6 °F 86% 29.98 in 6.2 mi SW 4.6 mph - N/A   Partly Cloudy
12:50 AM 30.2 °F 24.3 °F 26.6 °F 86% 29.98 in 6.2 mi SSW 5.8 mph - N/A   Partly Cloudy
1:20 AM 30.2 °F 25.4 °F 26.6 °F 86% 29.98 in 6.2 mi SW 4.6 mph - N/A   Partly Cloudy
1:50 AM 30.2 °F 23.4 °F 26.6 °F 86% 29.98 in 6.2 mi SW 6.9 mph - N/A   Partly Cloudy
2:20 AM 30.2 °F 23.4 °F 26.6 °F 86% 29.98 in 6.2 mi SSW 6.9 mph - N/A   Partly Cloudy
2:50 AM 30.2 °F 23.4 °F 26.6 °F 86% 29.98 in 6.2 mi SSW 6.9 mph - N/A   Partly Cloudy
3:20 AM 30.2 °F 22.6 °F 26.6 °F 86% 29.98 in 6.2 mi SSW 8.1 mph - N/A   Partly Cloudy
3:50 AM 30.2 °F 23.4 °F 26.6 °F 86% 29.98 in 6.2 mi SSW 6.9 mph - N/A   Partly Cloudy
4:20 AM 30.2 °F 22.6 °F 26.6 °F 86% 29.98 in - South 8.1 mph - N/A   Clear
4:50 AM 30.2 °F 22.6 °F 26.6 °F 86% 29.98 in - South 8.1 mph - N/A   Clear
5:20 AM 30.2 °F 22.6 °F 24.8 °F 80% 29.95 in - South 8.1 mph - N/A   Clear
5:50 AM 30.2 °F 22.6 °F 24.8 °F 80% 29.98 in - South 8.1 mph - N/A   Clear
6:20 AM 30.2 °F 22.6 °F 24.8 °F 80% 29.98 in - South 8.1 mph - N/A   Clear
6:50 AM 30.2 °F 22.6 °F 24.8 °F 80% 29.95 in - South 8.1 mph - N/A   Clear
7:20 AM 28.4 °F 20.4 °F 24.8 °F 86% 29.95 in - South 8.1 mph - N/A   Clear
7:50 AM 28.4 °F 23.3 °F 24.8 °F 86% 29.95 in - South 4.6 mph - N/A   Clear
8:20 AM 28.4 °F 19.7 °F 24.8 °F 86% 29.95 in - South 9.2 mph - N/A   Clear
8:50 AM 30.2 °F 22.6 °F 24.8 °F 80% 29.98 in - South 8.1 mph - N/A   Clear
9:20 AM 32.0 °F 23.6 °F 24.8 °F 75% 29.95 in - South 10.4 mph - N/A   Clear
9:50 AM 33.8 °F 25.3 °F 26.6 °F 75% 29.95 in - South 11.5 mph - N/A   Clear
10:20 AM 33.8 °F 25.3 °F 26.6 °F 75% 29.95 in - South 11.5 mph - N/A   Clear
10:50 AM 35.6 °F 27.5 °F 26.6 °F 70% 29.95 in - South 11.5 mph - N/A   Clear
11:20 AM 37.4 °F 29.3 °F 28.4 °F 70% 29.95 in - South 12.7 mph - N/A   Clear
11:50 AM 37.4 °F 28.9 °F 28.4 °F 70% 29.95 in - South 13.8 mph - N/A   Clear
12:20 PM 39.2 °F 30.8 °F 26.6 °F 61% 29.95 in - South 15.0 mph - N/A   Clear
12:50 PM 39.2 °F 31.6 °F 26.6 °F 61% 29.95 in 6.2 mi South 12.7 mph - N/A   Partly Cloudy
1:20 PM 39.2 °F 31.6 °F 28.4 °F 65% 29.95 in 6.2 mi South 12.7 mph - N/A   Partly Cloudy
1:50 PM 39.2 °F 32.0 °F 26.6 °F 61% 29.92 in - South 11.5 mph - N/A   Clear
2:20 PM 41.0 °F 35.2 °F 26.6 °F 57% 29.92 in 6.2 mi SSW 9.2 mph - N/A   Partly Cloudy
2:50 PM 41.0 °F 35.2 °F 26.6 °F 57% 29.92 in 6.2 mi SSW 9.2 mph - N/A   Partly Cloudy
3:20 PM 41.0 °F 35.2 °F 24.8 °F 53% 29.92 in 6.2 mi South 9.2 mph - N/A   Partly Cloudy
3:50 PM 41.0 °F 34.7 °F 24.8 °F 53% 29.92 in 6.2 mi South 10.4 mph - N/A   Partly Cloudy
4:20 PM 39.2 °F 32.0 °F 24.8 °F 56% 29.92 in 6.2 mi South 11.5 mph - N/A   Partly Cloudy
4:50 PM 39.2 °F 33.0 °F 23.0 °F 52% 29.92 in 6.2 mi South 9.2 mph - N/A   Partly Cloudy
5:20 PM 37.4 °F 30.8 °F 24.8 °F 60% 29.92 in 6.2 mi South 9.2 mph - N/A   Partly Cloudy
5:50 PM 35.6 °F 31.7 °F 23.0 °F 60% 29.92 in 6.2 mi South 4.6 mph - N/A   Partly Cloudy
6:20 PM 35.6 °F 31.7 °F 23.0 °F 60% 29.92 in - South 4.6 mph - N/A   Clear
6:50 PM 33.8 °F 29.6 °F 23.0 °F 65% 29.95 in - SE 4.6 mph - N/A   Clear
7:20 PM 33.8 °F 29.6 °F 24.8 °F 70% 29.95 in - SE 4.6 mph - N/A   Clear
7:50 PM 33.8 °F 28.6 °F 24.8 °F 70% 29.95 in - SE 5.8 mph - N/A   Clear
8:20 PM 33.8 °F 28.6 °F 24.8 °F 70% 29.95 in - SE 5.8 mph - N/A   Clear
8:50 PM 32.0 °F 27.5 °F 23.0 °F 69% 29.95 in - ESE 4.6 mph - N/A   Clear
9:20 PM 30.2 °F 25.4 °F 23.0 °F 75% 29.95 in - SE 4.6 mph - N/A   Clear
9:50 PM 28.4 °F 22.2 °F 23.0 °F 80% 29.95 in - ESE 5.8 mph - N/A   Clear
10:20 PM 30.2 °F 25.4 °F 23.0 °F 75% 29.98 in - SE 4.6 mph - N/A   Clear
10:50 PM 30.2 °F 24.3 °F 23.0 °F 75% 29.98 in - SE 5.8 mph - N/A   Clear
11:20 PM 30.2 °F 23.4 °F 21.2 °F 69% 29.98 in - SE 6.9 mph - N/A   Clear
11:50 PM 30.2 °F 24.3 °F 21.2 °F 69% 29.98 in - SE 5.8 mph - N/A   Clear